Temp
25 25 25 26 27 28 27 29 26 25 26 25 25 25 25 26 26 26 26 25 26 27
25 25 26 27 27 27 27 27 27 27 26 26 26 26 26 26 25 26 25 25 26 25
25 25 25 26 26 27 26 27 23 26 26 26 26 26 25 26 26 25 26 27 25 25
26 26 25 26 26 25 26 26 25 25 26 25 26 25 24 25 25 26 25 26 26 26
27 27 27 26 26 26 25 26 26 25 25 26 26 26 24 25 26 26 25 25 26 27
28 27 27 27 26 26 26 25 26 26 26 25 25 25 25 24 24 26 26 26 25 25
28 28 28 27 27 26 26 26 26 26 26 25 25 26 26 25 25 25 26 25 25 25
28 28 28 28 27 26 26 26 25 26 26 26 26 26 25 25 25 25 25 25 25 25
27 27 27 27 26 26 26 26 25 25 26 26 26 27 26 25 25 26 25 24 24 26
26 26 26 25 25 25 25 25 25 25 25 25 25 26 25 25 24 25 25 24 24 25
24 24 24 25 24 24 24 24 24 25 25 24 25 25 24 24 23 24 25 24 23 23
22 22 23 23 24 23 23 23 23 24 24 24 24 24 24 23 23 24 22 21 21 21
21 22 22 22 22 22 22 22 22 22 22 23 22 21 23 22 24 22 21 18 19 19
19 20 21 21 21 21 21 21 21 20 20 20 20 20 20 20 21 22 19 19 18 17
Height
821 824 826 826 826 826 825 826 828 834 836 838 839 840 840 840 840 839 841 841 840 838
818 821 822 823 824 826 825 826 828 830 834 835 837 838 839 839 840 840 840 840 838 838
815 818 821 822 822 823 824 824 823 828 831 833 835 836 837 836 836 838 838 836 837 838
810 813 817 819 821 823 823 824 826 829 831 832 833 834 835 835 835 835 836 836 835 836
804 808 811 814 816 819 821 823 825 827 828 829 830 830 832 833 832 832 833 834 833 833
799 802 805 808 812 814 816 819 820 822 824 827 828 828 829 830 832 831 830 830 831 832
793 795 798 802 806 809 811 814 816 817 819 821 823 824 825 826 827 827 827 828 829 829
787 791 794 796 799 803 806 809 811 813 814 816 818 819 820 822 823 824 825 825 825 826
783 787 790 791 794 797 800 803 805 807 809 810 812 812 814 817 819 820 821 823 823 821
780 782 785 787 789 791 793 796 798 801 803 804 806 807 809 812 815 816 817 819 819 819
777 779 780 782 783 786 789 790 791 793 796 799 801 801 804 807 810 812 813 815 816 817
776 777 778 778 778 780 783 785 786 788 792 794 797 796 799 803 806 807 810 811 811 814
775 776 776 777 777 777 778 780 782 784 786 788 791 791 795 799 801 804 807 807 809 811
772 773 774 775 775 776 776 777 778 780 782 783 785 788 791 795 799 800 804 805 804 806
Wind_Speed
16 14 11 11 12 8 13 8 18 9 9 7 6 5 4 6 6 6 4 4 6 8
18 17 16 13 14 11 11 3 9 8 10 9 8 8 6 6 4 4 6 6 7 6
19 18 17 12 10 9 6 12 7 9 9 9 9 8 8 9 9 6 7 7 4 5
20 20 18 17 15 15 12 8 6 7 10 10 11 10 9 9 8 6 7 8 7 6
20 20 20 20 19 16 15 14 13 12 13 12 12 8 8 9 8 7 6 8 11 8
22 21 20 21 20 20 18 17 15 15 13 13 12 10 10 10 8 8 9 8 12 7
22 23 22 21 20 20 20 19 18 17 16 16 15 13 11 10 9 9 10 11 9 9
20 20 20 20 21 21 20 21 20 20 19 18 17 17 15 13 12 11 11 10 7 10
17 18 19 19 20 21 22 22 21 22 22 20 20 20 19 16 12 11 10 10 11 11
18 18 19 19 20 23 25 24 24 22 22 22 21 20 17 20 15 13 13 11 10 8
17 19 20 19 20 22 24 25 24 24 24 22 21 23 20 19 16 15 13 11 8 5
9 13 16 18 19 21 22 24 24 24 22 22 20 22 20 19 15 15 10 7 9 5
8 11 10 13 15 19 20 22 20 21 21 20 19 20 21 19 16 13 12 9 9 11
8 7 9 12 15 12 10 11 12 11 9 13 17 16 18 19 13 15 15 14 14 10
Wind_Direction
200 208 221 219 245 233 236 202 147 175 208 217 214 212 212 231 253 159 270 277 299 301
201 210 220 227 224 223 253 183 161 187 209 220 221 226 231 247 254 260 266 261 245 266
204 206 219 234 231 233 250 239 248 188 221 221 232 236 233 246 215 239 275 282 298 264
206 208 209 213 218 229 238 235 237 222 220 229 233 235 228 248 264 248 260 276 260 257
206 209 207 213 218 218 221 220 220 216 222 231 241 231 220 232 265 249 246 249 268 256
208 212 219 210 217 214 215 220 221 218 224 219 221 222 228 232 252 249 256 261 258 257
214 214 216 217 213 216 215 218 221 224 218 219 220 224 228 232 234 247 258 241 264 254
216 219 222 213 209 213 215 217 221 220 222 223 224 223 220 223 232 236 244 262 257 249
212 217 220 222 217 211 215 217 217 221 221 220 229 232 223 217 231 243 235 243 251 251
229 218 219 219 219 218 216 214 215 217 220 224 227 235 216 215 222 230 237 243 246 245
230 225 219 218 222 225 225 222 218 217 220 223 224 231 223 229 226 230 233 231 227 232
256 249 240 228 227 226 226 230 228 226 226 224 224 225 220 225 219 222 201 181 200 179
258 260 269 261 248 240 231 235 233 230 226 226 223 221 218 219 213 192 180 168 202 187
257 257 262 275 278 264 241 227 193 183 195 180 196 211 205 189 204 192 179 177 157 157